"Pseudo-MPEC" for CEGR5R2

Created 2026 Apr 9 7:35:07 UT using Find_Orb

Click here for an explanation of pseudo-MPECs

 
 Astrometry: 
     CEGR5R2*1C2026 04 08.30120913 31 19.081-06 20 24.50   ~487o 20.87GVNEOCPG96
     CEGR5R2 1C2026 04 08.30688513 31 22.620-06 20 47.54   ~487o 21.39GVNEOCPG96
     CEGR5R2 1C2026 04 08.31256213 31 26.213-06 21 10.08   ~487o 20.58GVNEOCPG96
     CEGR5R2 1C2026 04 08.31824013 31 29.784-06 21 33.16   ~487o 20.94GVNEOCPG96
     CEGR5R2 1C2026 04 08.39498213 32 17.401-06 26 34.66   ~48A5 20.89GVNEOCPI52
     CEGR5R2 1C2026 04 08.39840613 32 19.450-06 26 47.69   ~48A5 20.55GVNEOCPI52
     CEGR5R2 1C2026 04 08.40182413 32 21.595-06 27 01.08   ~48A5 20.97GVNEOCPI52
     CEGR5R2 0C2026 04 08.43661 13 32 43.22 -06 29 12.4    ~48B5 20.8 RVNEOCP291
     CEGR5R2 0C2026 04 08.43935 13 32 44.92 -06 29 22.7    ~48B5 20.5 RVNEOCP291
     CEGR5R2 0C2026 04 08.44212 13 32 46.64 -06 29 33.2    ~48B5 20.6 RVNEOCP291
     CEGR5R2 1C2026 04 08.92043913 37 58.066-06 59 00.24   ~490K 20.5 GWNEOCP246
     CEGR5R2 1C2026 04 08.92075813 37 58.276-06 59 01.55   ~490K 20.3 GWNEOCP246
     CEGR5R2 KB2026 04 08.97320413 38 28.68 -07 01 50.1    ~4905 20.4 GVNEOCPI93
     CEGR5R2 KB2026 04 08.97852713 38 31.52 -07 02 08.5    ~4905 20.6 GVNEOCPI93
     CEGR5R2 KB2026 04 08.98367613 38 34.33 -07 02 25.7    ~4905 20.0 GVNEOCPI93
     CEGR5R2 KB2026 04 09.02076613 38 51.86 -07 04 28.9    ~4915 20.3 GVNEOCPL01
     CEGR5R2 KB2026 04 09.02400613 38 53.60 -07 04 40.3    ~4915 20.5 GVNEOCPL01
     CEGR5R2 |C2026 04 09.08412013 39 37.640-07 04 26.90   ~492Z 21.0 GVNEOCP807
     CEGR5R2 |C2026 04 09.08792013 39 39.620-07 04 39.40   ~492Z 21.3 GVNEOCP807
     CEGR5R2 |C2026 04 09.09173013 39 41.620-07 04 52.00   ~492Z 21.3 GVNEOCP807
     CEGR5R2 KC2026 04 09.25147313 41 04.11 -07 16 35.3    ~496o 21.1 GVNEOCPH21
     CEGR5R2 KC2026 04 09.25707313 41 06.87 -07 16 52.5    ~496o 21.4 GVNEOCPH21
     CEGR5R2 KC2026 04 09.26267113 41 09.59 -07 17 09.3    ~496o 21.1 GVNEOCPH21

Station data:
(246) Klet Observatory-KLENOT  (N48.863991 E14.284760)  Czech Republic.
   Observer J. Ticha. Measurer M. Tichy. 1.06-m f/2.7 reflector + 2048x2048
   CCD.
(291) LPL/Spacewatch II  (N31.961669 W111.599905)  US/Arizona.  Observers J.
   V. Scotti, R. S. McMillan. 1.8-m f/2.7 reflector + CCD.
(807) Cerro Tololo Observatory, La Serena  (S30.169133 W70.805900)  Chile.
   Observer R. Holmes. 0.61-m f/6.5 astrograph + CCD.
(G96) Mt. Lemmon Survey  (N32.442729 W110.788720)  US/Arizona.  Observer E.
   J. Christensen. Measurers T. Beuden, V. F. Carvajal, D. Fay, J. B.
   Fazekas, D. C. Fuls, A. R. Gibbs, A. D. Grauer, H. Gröller, J. K. Hogan,
   R. A. Kowalski, S. M. Larson, G. J. Leonard, D. Rankin, R. L. Seaman, F.
   C. Shelly, K. W. Wierzchoś. 1.5-m reflector + 10K CCD.
(H21) Astronomical Research Observatory, Westfield  (N39.483054 W87.968270)
   US/Illinois.  Observer R. Holmes. Measurers S. Foglia, L. Buzzi, T.
   Linder, R. Holmes. 0.40-m f/5.32 astrograph + CCD.
(I52) Steward Observatory, Mt. Lemmon Station  (N32.442570 W110.788920)
   US/Arizona. Measurers T. Beuden, V. F. Carvajal, D. Fay, J. B. Fazekas, D.
   C. Fuls, A. R. Gibbs, A. D. Grauer, H. Gröller, J. K. Hogan, R. A.
   Kowalski, S. M. Larson, G. J. Leonard, D. Rankin, R. L. Seaman, F. C.
   Shelly, K. W. Wierzchoś. 1.0-m prime focus + CCD.
(I93) St Pardon de Conques  (N44.558670 W0.202960)  France.  Observers F.
   Losse, W. D'Anna. Measurer F. Losse. 0.40-m f/3.7 reflector + CCD.
(L01) Višnjan Observatory, Tičan  (N45.290897 E13.749300)  Croatia.
   Observers K. Korlević, L. Poropat. Measurer K. Korlevic. 1.0-m f/2.9
   reflector + CCD.

Orbital elements:  CEGR5R2
   Perihelion 2026 Mar 4.238675 +/- 0.015 TT =  5:43:41.5 (JD 2461103.738675)
Epoch 2026 Apr  9.0 TT = JDT 2461139.5   Earth MOID: 0.0004   Ju: 0.8830
M   8.759687003 +/- 0.037           Ma: 0.0311                   AutoNEOCP
n   0.244948614 +/- 0.00101         Peri.  322.538081 +/- 0.040
a   2.529799237 +/- 0.00692         Node   190.168509 +/- 0.010
e   0.63450776 +/- 0.00106          Incl.    0.939308 +/- 0.0015
P   4.02373                H 27.03  G  0.15   U  8.1
q 0.924621971 +/- 0.000225    Q 4.134976502 +/- 0.014     (J2000 ecliptic)
From 23 observations 2026 Apr. 8-9 (23.1 hr); mean residual 0".34
Residuals in arcseconds: 
260408 G96  .27+  .15-    260408 291  .36-  .39+    260409 L01  .25+  .35-    
260408 G96  .14-  .32-    260408 291  .34-  .38+    260409 807  .06+  .44-    
260408 G96  .36+  .05-    260408 246  .22+  .55+    260409 807  .16-  .23-    
260408 G96  .61+  .38-    260408 246  .75+  .33+    260409 807  .07-  .10-    
260408 I52  .38+  .15-    260408 I93  .37-  .20+    260409 H21  .21-  .29-    
260408 I52  .65-  .04+    260408 I93  .35-  .33-    260409 H21  .03+  .11-    
260408 I52  .19-  .18-    260408 I93  .70+  .29-    260409 H21  .25-  .41+    
260408 291  .36-  .31+    260409 L01  .22-  .48+    

Ephemerides (geocentric):
Date (UTC) HH   RA             Dec           delta  r     elong  mag " sig PA
---- --------  ------------   ------------  ------ ------ -----  --- --------
2026 04 09 08  13 41 47.484   -07 18 43.87  .05240 1.0534 172.3 21.3 .148 138
2026 04 09 09  13 42 09.647   -07 20 50.12  .05267 1.0537 172.2 21.3 .155 135
2026 04 09 10  13 42 31.587   -07 22 55.02  .05293 1.0540 172.2 21.3 .163 132
2026 04 09 11  13 42 53.308   -07 24 58.61  .05320 1.0543 172.1 21.3 .172 130
2026 04 09 12  13 43 14.813   -07 27 00.90  .05347 1.0545 172.1 21.3 .181 127
2026 04 09 13  13 43 36.104   -07 29 01.91  .05373 1.0548 172.0 21.3 .191 125
2026 04 09 14  13 43 57.185   -07 31 01.65  .05400 1.0551 172.0 21.4 .201 124
2026 04 09 15  13 44 18.059   -07 33 00.15  .05427 1.0553 171.9 21.4 .212 122
2026 04 09 16  13 44 38.728   -07 34 57.43  .05453 1.0556 171.9 21.4 .223 120
2026 04 09 17  13 44 59.195   -07 36 53.50  .05480 1.0559 171.8 21.4 .234 119
2026 04 09 18  13 45 19.463   -07 38 48.37  .05507 1.0562 171.8 21.4 .246 118
2026 04 09 19  13 45 39.534   -07 40 42.08  .05534 1.0564 171.7 21.4 .258 117
2026 04 09 20  13 45 59.412   -07 42 34.62  .05561 1.0567 171.7 21.4 .270 116
2026 04 09 21  13 46 19.099   -07 44 26.03  .05587 1.0570 171.6 21.4 .282 115
2026 04 09 22  13 46 38.597   -07 46 16.31  .05614 1.0572 171.6 21.5 .295 114
2026 04 09 23  13 46 57.908   -07 48 05.48  .05641 1.0575 171.6 21.5 .308 113
2026 04 10 00  13 47 17.037   -07 49 53.56  .05668 1.0578 171.5 21.5 .321 112
2026 04 10 01  13 47 35.984   -07 51 40.57  .05695 1.0581 171.5 21.5 .335 112
2026 04 10 02  13 47 54.752   -07 53 26.51  .05722 1.0583 171.4 21.5 .349 111
2026 04 10 03  13 48 13.344   -07 55 11.40  .05749 1.0586 171.4 21.5 .362 111
2026 04 10 04  13 48 31.761   -07 56 55.26  .05776 1.0589 171.4 21.5 .376 110
2026 04 10 05  13 48 50.007   -07 58 38.10  .05802 1.0592 171.3 21.5 .391 110
2026 04 10 06  13 49 08.083   -08 00 19.94  .05829 1.0594 171.3 21.6 .405 109
2026 04 10 07  13 49 25.991   -08 02 00.78  .05856 1.0597 171.2 21.6 .420 109
2026 04 10 08  13 49 43.735   -08 03 40.65  .05883 1.0600 171.2 21.6 .434 109
2026 04 10 09  13 50 01.314   -08 05 19.55  .05910 1.0602 171.2 21.6 .449 108
2026 04 10 10  13 50 18.733   -08 06 57.50  .05938 1.0605 171.1 21.6 .464 108
2026 04 10 11  13 50 35.993   -08 08 34.52  .05965 1.0608 171.1 21.6 .479 108
2026 04 10 12  13 50 53.096   -08 10 10.60  .05992 1.0611 171.1 21.6 .494 107
2026 04 10 13  13 51 10.043   -08 11 45.78  .06019 1.0613 171.0 21.6 .509 107
2026 04 10 14  13 51 26.838   -08 13 20.05  .06046 1.0616 171.0 21.7 .525 107
2026 04 10 15  13 51 43.481   -08 14 53.43  .06073 1.0619 171.0 21.7 .540 107
2026 04 10 16  13 51 59.975   -08 16 25.94  .06100 1.0622 171.0 21.7 .556 107
2026 04 10 17  13 52 16.321   -08 17 57.58  .06127 1.0624 170.9 21.7 .571 106
2026 04 10 18  13 52 32.522   -08 19 28.37  .06154 1.0627 170.9 21.7 .587 106
2026 04 10 19  13 52 48.579   -08 20 58.31  .06182 1.0630 170.9 21.7 .603 106
2026 04 10 20  13 53 04.494   -08 22 27.42  .06209 1.0633 170.8 21.7 .619 106
2026 04 10 21  13 53 20.268   -08 23 55.71  .06236 1.0636 170.8 21.7 .634 106
2026 04 10 22  13 53 35.904   -08 25 23.19  .06263 1.0638 170.8 21.7 .650 106
2026 04 10 23  13 53 51.403   -08 26 49.87  .06290 1.0641 170.8 21.8 .667 105
2026 04 11 00  13 54 06.767   -08 28 15.76  .06318 1.0644 170.7 21.8 .683 105
2026 04 11 01  13 54 21.997   -08 29 40.87  .06345 1.0647 170.7 21.8 .699 105
2026 04 11 02  13 54 37.095   -08 31 05.20  .06372 1.0649 170.7 21.8 .715 105
2026 04 11 03  13 54 52.062   -08 32 28.78  .06399 1.0652 170.7 21.8 .731 105
2026 04 11 04  13 55 06.901   -08 33 51.61  .06427 1.0655 170.6 21.8 .748 105
2026 04 11 05  13 55 21.612   -08 35 13.70  .06454 1.0658 170.6 21.8 .764 105
2026 04 11 06  13 55 36.197   -08 36 35.06  .06481 1.0661 170.6 21.8 .780 105
2026 04 11 07  13 55 50.658   -08 37 55.69  .06509 1.0663 170.6 21.8 .797 105